Wind_Speed
9 5 10 19 4 6 11 8 7 11 2 4 9 11 10 3 7 16 7 9 8 10 11 21 22 21 21 23 26 29 32 32 32 32 31 29 29 30 34 38 40 40 39 38
12 8 7 4 3 9 9 9 11 3 3 3 6 18 11 4 21 14 7 6 8 7 10 19 20 24 26 28 29 31 32 32 30 30 28 28 29 29 30 34 38 37 36 38
7 5 4 4 6 6 8 11 9 11 5 10 5 18 6 7 6 8 10 13 8 1 6 16 21 21 25 32 34 33 32 31 28 27 27 27 27 27 27 28 31 32 33 32
3 6 6 4 5 7 5 10 15 18 6 6 14 7 15 12 8 10 5 4 7 8 10 12 14 20 27 31 36 36 34 30 29 28 30 30 30 29 27 25 25 23 27 28
3 3 1 6 3 10 13 11 8 20 9 8 20 17 11 9 8 16 8 6 6 6 8 8 10 17 26 30 32 36 35 31 31 33 31 29 27 26 26 23 23 20 20 28
9 3 7 4 6 5 11 6 14 11 6 3 22 16 2 8 17 19 8 6 5 7 9 11 11 16 25 30 30 33 34 31 33 33 31 30 28 26 23 21 20 20 20 19
9 7 2 3 6 10 11 19 9 2 6 3 12 7 5 6 11 10 8 7 7 6 7 8 16 20 26 30 34 33 35 32 31 31 30 27 24 22 21 21 22 20 20 17
6 4 2 1 4 9 13 9 10 12 12 5 5 8 9 7 9 9 10 7 4 7 7 10 17 24 26 29 33 33 34 32 32 34 29 25 23 22 22 21 23 20 20 19
5 9 6 3 6 7 10 13 12 11 21 6 9 10 11 4 7 6 6 4 4 8 9 11 16 25 26 25 28 31 32 34 34 33 28 24 23 22 22 25 21 19 18 19
15 11 3 1 5 3 5 9 10 11 6 11 10 9 5 12 7 6 1 2 4 9 8 11 17 26 26 26 26 29 28 31 32 30 24 24 23 22 22 23 18 17 16 20
3 1 1 5 2 10 9 8 7 8 9 8 7 12 12 6 9 3 3 2 4 4 6 9 14 25 27 28 27 29 28 30 30 28 23 23 22 21 21 22 17 18 20 23
6 1 5 15 6 6 5 4 7 8 14 13 11 4 10 5 4 3 2 3 7 5 6 8 12 23 27 30 29 29 28 29 28 27 22 21 21 20 18 20 17 16 21 23
3 5 10 6 9 5 2 4 3 5 10 6 12 8 5 5 5 4 4 6 3 5 9 13 17 22 27 29 30 29 27 27 25 24 20 19 20 21 17 17 15 13 18 22
5 5 4 9 9 5 4 2 3 3 8 14 12 2 4 5 6 5 3 5 1 6 9 18 19 21 26 28 29 28 26 26 24 22 22 18 19 20 18 14 12 13 18 22
7 7 9 7 4 6 7 5 2 7 8 6 10 11 12 1 3 1 3 2 6 6 9 17 21 20 24 26 28 28 26 25 23 22 21 20 19 19 19 17 12 14 18 22
9 9 8 10 10 6 8 7 5 5 3 3 9 10 5 4 1 2 4 4 4 7 10 16 19 19 22 25 26 27 26 24 24 22 20 18 18 18 19 20 15 13 16 21
13 11 5 13 4 7 11 5 6 1 4 2 5 5 5 6 7 7 6 4 9 16 15 15 18 18 20 24 26 26 25 24 24 21 19 17 16 17 19 20 19 13 17 18
14 10 10 17 8 11 6 6 4 3 4 4 3 1 7 6 5 5 6 8 9 18 19 15 17 18 19 21 24 25 24 24 23 21 19 17 15 15 16 18 18 15 15 16
15 13 10 8 11 14 7 4 6 6 1 4 3 2 6 5 6 10 15 20 15 17 16 14 13 14 16 19 22 24 24 23 23 21 19 17 15 14 14 15 16 16 12 16
14 16 10 10 8 14 13 10 6 3 3 5 1 2 4 5 5 10 17 22 20 19 17 15 14 14 15 18 20 23 24 22 22 21 20 18 15 14 13 13 14 15 13 16
15 13 16 17 12 1 3 6 1 3 5 7 4 13 4 5 11 12 14 17 20 21 15 12 12 14 15 17 19 21 23 22 21 21 21 19 16 15 12 12 13 13 12 14
12 13 17 14 10 4 7 3 5 4 6 11 10 12 1 10 14 14 17 24 18 14 11 12 11 13 14 16 18 20 21 22 22 21 20 20 18 16 14 12 12 13 13 14
9 14 6 4 6 8 4 7 6 10 10 10 12 10 9 6 6 7 13 13 10 11 12 12 13 13 14 15 15 17 19 20 21 22 21 20 19 17 15 15 13 12 13 16
12 6 5 8 8 6 5 6 9 6 8 11 12 13 12 12 3 8 14 15 13 13 12 12 12 13 15 14 16 16 17 19 20 22 22 20 21 21 17 15 15 14 14 13
8 7 5 8 10 12 12 11 11 9 10 11 13 13 13 12 7 5 13 17 15 15 14 13 13 13 14 15 15 15 16 17 19 21 24 25 24 23 21 21 17 16 15 14
9 12 8 3 6 1 5 7 12 11 12 14 13 15 14 11 9 7 10 16 16 16 15 13 13 12 13 14 15 16 16 17 18 21 24 24 23 24 24 22 23 23 19 14
Wind_Direction
216 249 273 231 271 304 30 40 34 5 330 151 115 117 107 28 92 89 71 301 358 38 356 344 349 348 344 336 340 340 336 336 332 330 332 328 326 324 319 315 315 315 318 314
254 262 311 350 295 3 13 45 21 281 306 154 162 125 162 154 47 76 115 112 29 27 325 355 353 345 343 344 347 348 343 340 340 337 335 331 328 322 318 315 312 318 314 312
239 262 290 299 12 8 356 325 341 313 145 95 47 49 339 153 130 133 309 81 101 87 11 10 1 355 348 346 346 350 349 345 346 340 338 334 329 323 318 316 314 317 321 322
261 215 284 279 353 359 346 357 339 1 56 97 334 260 218 182 328 105 132 56 75 54 41 28 3 342 344 347 345 349 353 352 348 346 343 341 338 334 332 328 327 329 334 329
324 289 246 64 265 335 340 353 37 45 45 91 263 241 224 202 184 136 142 128 79 58 45 23 16 340 339 346 347 347 354 358 352 350 348 346 344 341 342 339 340 333 323 330
232 181 60 104 323 1 339 317 291 317 247 183 278 198 359 192 127 133 134 124 94 53 23 355 334 338 342 346 354 352 356 357 352 352 352 353 355 353 356 354 354 352 350 347
195 227 251 253 317 352 335 321 316 244 229 293 348 144 133 80 84 112 108 98 80 47 355 358 321 342 347 348 358 356 358 354 352 354 360 1 2 359 2 4 5 4 6 6
178 79 323 288 349 330 313 333 349 335 320 65 25 30 77 117 129 122 106 106 86 31 17 16 323 344 354 357 350 351 352 352 356 0 4 6 7 7 10 10 12 16 18 15
46 222 207 276 329 339 342 330 326 300 310 114 142 148 164 202 142 115 105 103 47 31 11 357 322 342 355 359 344 351 347 352 359 0 5 6 9 9 15 23 20 28 22 12
164 195 206 315 328 295 311 344 353 339 328 342 176 141 174 161 170 148 113 81 15 50 352 347 328 336 354 358 345 353 352 351 355 4 5 8 9 12 24 23 27 23 16 10
309 293 160 276 320 341 318 332 344 323 322 323 348 74 72 124 155 126 139 52 18 41 11 349 329 330 352 355 354 357 356 355 356 3 11 11 9 17 26 17 23 17 15 15
255 264 309 52 22 349 335 351 9 356 342 351 338 59 87 101 142 151 176 126 229 15 20 335 335 332 350 355 360 358 360 358 356 4 15 11 10 19 24 15 11 9 13 15
214 224 264 358 338 251 303 43 354 11 316 326 301 4 115 167 156 143 158 281 357 43 327 308 330 340 349 355 0 359 2 360 1 2 14 12 15 14 23 13 3 1 9 14
201 245 247 176 247 346 278 224 253 315 303 340 23 121 200 205 196 164 231 20 187 332 325 314 335 345 348 357 358 360 3 3 2 8 14 17 16 13 15 16 8 358 6 12
204 242 259 275 297 307 299 289 315 333 329 332 347 59 35 321 341 224 208 23 306 280 312 314 333 347 350 356 358 0 3 4 7 12 10 13 16 14 12 13 22 2 7 8
197 231 275 293 279 271 301 277 257 288 320 319 28 353 314 341 229 232 340 283 260 284 303 306 331 346 348 356 360 1 2 4 9 11 11 11 10 16 14 17 20 12 6 5
217 231 261 274 322 284 291 313 174 186 285 272 336 354 332 315 262 295 249 251 257 279 304 315 333 344 349 354 359 0 2 6 9 8 6 6 6 10 14 18 17 18 9 8
214 219 243 273 243 280 174 186 157 187 253 276 336 347 327 311 269 312 204 202 249 289 304 309 326 341 346 352 356 359 3 7 6 6 5 4 2 6 9 13 18 22 10 10
204 213 240 295 277 289 222 150 133 129 105 210 242 286 316 283 244 242 245 258 265 328 314 313 325 335 343 351 355 359 3 5 4 4 3 3 358 359 2 10 15 12 18 10
205 211 238 261 304 289 184 155 136 46 172 205 214 0 306 261 267 218 233 259 281 318 315 315 328 336 345 350 353 358 2 3 3 3 3 3 358 352 352 2 8 12 12 8
204 208 234 247 250 354 166 177 156 291 164 203 324 332 322 213 228 227 250 271 291 307 307 304 319 336 343 346 353 358 360 2 0 2 4 3 358 349 350 351 354 358 10 350
242 221 223 237 253 208 201 217 272 274 278 292 317 330 320 244 260 255 258 271 287 299 300 305 321 332 341 344 350 353 356 360 2 1 1 2 1 355 348 343 340 345 348 359
182 230 290 29 293 265 275 269 263 283 292 282 319 351 14 249 217 202 245 278 290 305 312 312 319 325 333 340 347 347 352 357 2 3 3 2 0 356 351 345 341 341 340 343
283 252 264 251 250 256 256 242 262 270 272 282 308 333 350 2 232 217 257 287 298 305 311 304 310 317 329 337 342 346 347 354 359 1 2 359 3 0 360 353 340 337 329 333
321 294 299 273 283 258 265 264 239 237 241 271 282 310 325 329 335 259 260 294 297 302 310 306 310 317 322 330 337 340 343 349 355 358 357 360 2 352 356 349 351 340 327 323
281 258 247 295 259 202 230 249 246 230 231 248 243 278 289 302 307 248 298 319 314 306 311 310 307 313 320 329 336 341 343 345 350 355 358 356 356 356 356 349 345 343 337 321
Height
3210 3210 3208 3202 3205 3204 3203 3204 3203 3206 3207 3206 3206 3208 3211 3206 3196 3202 3205 3207 3207 3206 3201 3198 3193 3191 3188 3185 3182 3179 3173 3169 3163 3158 3154 3149 3145 3139 3132 3126 3121 3117 3113 3109
3210 3209 3208 3207 3207 3206 3205 3206 3206 3206 3206 3206 3197 3202 3209 3205 3190 3210 3205 3199 3205 3206 3201 3197 3193 3188 3185 3182 3180 3176 3171 3166 3161 3154 3151 3146 3141 3136 3132 3124 3116 3114 3110 3104
3208 3209 3208 3208 3206 3207 3209 3208 3207 3206 3204 3205 3206 3204 3216 3216 3219 3210 3211 3188 3203 3205 3202 3197 3193 3189 3185 3180 3176 3174 3169 3163 3158 3152 3148 3144 3139 3133 3128 3122 3116 3110 3104 3099
3207 3208 3208 3208 3208 3208 3208 3209 3208 3201 3203 3207 3218 3218 3217 3215 3209 3205 3216 3212 3210 3206 3204 3200 3196 3191 3186 3181 3175 3171 3166 3161 3155 3150 3145 3139 3132 3127 3122 3117 3113 3109 3102 3097
3207 3207 3207 3207 3210 3211 3209 3209 3206 3202 3208 3213 3212 3208 3205 3207 3209 3211 3215 3215 3210 3208 3205 3202 3199 3192 3186 3182 3176 3167 3162 3158 3152 3147 3142 3137 3131 3125 3119 3115 3111 3107 3102 3097
3207 3207 3208 3209 3210 3210 3209 3207 3204 3204 3208 3207 3192 3205 3202 3208 3203 3205 3212 3212 3212 3209 3206 3203 3198 3192 3186 3181 3176 3168 3163 3157 3152 3147 3141 3133 3127 3123 3119 3114 3110 3107 3103 3099
3205 3207 3209 3210 3209 3209 3208 3205 3201 3204 3199 3193 3203 3204 3207 3208 3208 3211 3210 3211 3212 3210 3206 3204 3196 3192 3186 3180 3174 3169 3163 3157 3152 3146 3140 3133 3129 3124 3119 3115 3110 3107 3103 3100
3204 3210 3209 3210 3210 3210 3207 3205 3202 3202 3197 3196 3195 3210 3214 3214 3214 3212 3209 3212 3211 3208 3205 3202 3195 3191 3185 3179 3173 3168 3162 3157 3151 3144 3138 3133 3129 3124 3119 3114 3111 3107 3104 3101
3213 3209 3209 3210 3209 3209 3207 3206 3205 3202 3194 3194 3205 3210 3213 3214 3213 3212 3211 3211 3209 3207 3205 3202 3195 3189 3186 3181 3173 3168 3161 3155 3150 3143 3138 3134 3128 3123 3119 3115 3112 3109 3106 3104
3210 3207 3208 3209 3209 3208 3208 3207 3205 3202 3197 3194 3201 3208 3209 3209 3212 3211 3210 3209 3208 3207 3206 3201 3195 3189 3186 3181 3174 3169 3163 3156 3150 3145 3139 3134 3129 3124 3120 3117 3114 3112 3108 3104
3207 3207 3209 3209 3209 3209 3208 3206 3207 3206 3205 3202 3197 3205 3206 3209 3211 3212 3212 3211 3209 3208 3206 3202 3196 3189 3185 3181 3175 3169 3163 3156 3150 3145 3140 3135 3130 3125 3122 3119 3116 3113 3110 3105
3207 3207 3208 3208 3210 3210 3209 3208 3209 3209 3208 3206 3205 3217 3209 3212 3212 3213 3212 3211 3207 3206 3204 3200 3196 3189 3184 3179 3174 3168 3162 3156 3149 3145 3140 3135 3131 3127 3124 3121 3118 3115 3111 3106
3206 3209 3209 3211 3214 3211 3209 3209 3210 3210 3210 3211 3207 3211 3209 3209 3210 3211 3211 3209 3207 3207 3203 3199 3195 3189 3184 3179 3174 3168 3163 3157 3151 3145 3141 3137 3132 3128 3125 3122 3119 3115 3112 3107
3207 3208 3208 3213 3210 3210 3208 3208 3209 3210 3209 3208 3208 3208 3210 3209 3206 3207 3208 3209 3210 3207 3202 3197 3194 3190 3184 3179 3174 3168 3163 3158 3152 3146 3142 3138 3133 3130 3125 3123 3119 3116 3113 3109
3207 3208 3208 3207 3208 3208 3207 3207 3207 3209 3210 3210 3209 3210 3210 3210 3209 3209 3207 3209 3209 3205 3201 3196 3192 3189 3185 3180 3174 3168 3163 3158 3153 3147 3142 3138 3134 3131 3127 3123 3120 3118 3115 3111
3206 3208 3207 3206 3206 3206 3206 3205 3206 3208 3209 3210 3208 3210 3211 3211 3209 3206 3207 3208 3207 3203 3200 3196 3192 3189 3185 3180 3175 3169 3164 3159 3153 3148 3144 3140 3136 3133 3129 3125 3121 3118 3116 3113
3205 3206 3206 3205 3204 3205 3205 3203 3203 3206 3208 3209 3209 3211 3210 3210 3208 3207 3206 3206 3204 3201 3198 3194 3191 3188 3184 3179 3174 3169 3164 3159 3154 3149 3145 3141 3137 3134 3130 3126 3123 3120 3117 3114
3203 3204 3205 3203 3202 3201 3200 3201 3202 3204 3206 3207 3209 3208 3208 3208 3207 3206 3204 3202 3200 3199 3196 3193 3190 3187 3184 3179 3175 3170 3164 3159 3155 3150 3146 3142 3138 3135 3132 3128 3124 3121 3119 3115
3201 3202 3203 3202 3200 3201 3199 3200 3202 3203 3205 3205 3206 3206 3206 3206 3205 3204 3201 3199 3198 3196 3194 3192 3189 3187 3184 3179 3175 3170 3165 3160 3155 3151 3146 3142 3139 3136 3133 3130 3126 3123 3120 3117
3198 3200 3202 3200 3200 3200 3199 3199 3200 3200 3204 3203 3203 3203 3203 3203 3203 3201 3196 3194 3195 3195 3193 3190 3188 3185 3182 3179 3175 3170 3165 3160 3156 3151 3147 3143 3139 3136 3133 3130 3127 3124 3122 3119
3197 3198 3198 3197 3198 3199 3199 3199 3198 3201 3206 3200 3200 3200 3199 3200 3198 3197 3195 3193 3193 3192 3191 3189 3186 3184 3181 3178 3174 3170 3166 3161 3157 3152 3147 3143 3140 3136 3133 3130 3127 3125 3122 3120
3194 3196 3195 3194 3194 3197 3200 3200 3200 3199 3198 3199 3199 3199 3197 3195 3195 3195 3193 3191 3191 3190 3189 3187 3184 3182 3180 3177 3173 3170 3166 3162 3157 3153 3148 3144 3140 3137 3133 3130 3127 3124 3121 3119
3193 3194 3191 3193 3194 3196 3197 3196 3196 3197 3197 3196 3197 3197 3196 3195 3194 3194 3192 3190 3189 3188 3187 3185 3182 3180 3178 3176 3173 3170 3166 3162 3158 3154 3149 3145 3141 3137 3133 3129 3127 3123 3121 3118
3188 3189 3191 3192 3195 3195 3194 3195 3195 3196 3195 3195 3195 3195 3194 3193 3192 3192 3190 3188 3187 3186 3185 3183 3181 3179 3176 3174 3171 3168 3165 3162 3158 3154 3150 3146 3141 3137 3133 3129 3126 3123 3121 3118
3188 3188 3188 3192 3191 3191 3191 3192 3194 3195 3194 3193 3192 3193 3192 3191 3191 3190 3188 3186 3185 3184 3183 3182 3180 3177 3175 3173 3171 3168 3165 3162 3158 3154 3150 3145 3141 3137 3132 3129 3125 3122 3120 3117
3185 3186 3188 3188 3188 3188 3188 3192 3190 3192 3193 3192 3191 3190 3190 3189 3189 3189 3187 3184 3183 3182 3180 3179 3178 3176 3174 3172 3169 3166 3164 3161 3158 3154 3150 3146 3142 3137 3132 3128 3124 3122 3119 3116